Year,Month,Day,Hour,Minute,Value (Times are PST for temperature in C)
2014,08,19,00,00,21.60
2014,08,19,00,01,21.60
2014,08,19,00,02,21.60
2014,08,19,00,03,21.50
2014,08,19,00,04,21.50
2014,08,19,00,05,21.40
2014,08,19,00,06,21.40
2014,08,19,00,07,21.40
2014,08,19,00,08,21.30
2014,08,19,00,09,21.30
2014,08,19,00,10,21.20
2014,08,19,00,11,21.20
2014,08,19,00,12,21.10
2014,08,19,00,13,21.10
2014,08,19,00,14,21.00
2014,08,19,00,15,21.00
2014,08,19,00,16,20.90
2014,08,19,00,17,20.90
2014,08,19,00,18,20.80
2014,08,19,00,19,20.80
2014,08,19,00,20,20.70
2014,08,19,00,21,20.70
2014,08,19,00,22,20.70
2014,08,19,00,23,20.60
2014,08,19,00,24,20.60
2014,08,19,00,25,20.60
2014,08,19,00,26,20.60
2014,08,19,00,27,20.60
2014,08,19,00,28,20.60
2014,08,19,00,29,20.60
2014,08,19,00,30,20.60
2014,08,19,00,31,20.60
2014,08,19,00,32,20.60
2014,08,19,00,33,20.60
2014,08,19,00,34,20.60
2014,08,19,00,35,20.60
2014,08,19,00,36,20.60
2014,08,19,00,37,20.60
2014,08,19,00,38,20.50
2014,08,19,00,39,20.50
2014,08,19,00,40,20.50
2014,08,19,00,41,20.40
2014,08,19,00,42,20.40
2014,08,19,00,43,20.40
2014,08,19,00,44,20.40
2014,08,19,00,45,20.30
2014,08,19,00,46,20.30
2014,08,19,00,47,20.30
2014,08,19,00,48,20.30
2014,08,19,00,49,20.30
2014,08,19,00,50,20.30
2014,08,19,00,51,20.30
2014,08,19,00,52,20.30
2014,08,19,00,53,20.40
2014,08,19,00,54,20.40
2014,08,19,00,55,20.40
2014,08,19,00,56,20.50
2014,08,19,00,57,20.50
2014,08,19,00,58,20.60
2014,08,19,00,59,20.60
2014,08,19,01,00,20.60
2014,08,19,01,01,20.70
2014,08,19,01,02,20.70
2014,08,19,01,03,20.70
2014,08,19,01,04,20.70
2014,08,19,01,05,20.70
2014,08,19,01,06,20.70
2014,08,19,01,07,20.70
2014,08,19,01,08,20.80
2014,08,19,01,09,20.80
2014,08,19,01,10,20.80
2014,08,19,01,11,20.80
2014,08,19,01,12,20.80
2014,08,19,01,13,20.80
2014,08,19,01,14,20.80
2014,08,19,01,15,20.80
2014,08,19,01,16,20.80
2014,08,19,01,17,20.80
2014,08,19,01,18,20.80
2014,08,19,01,19,20.80
2014,08,19,01,20,20.80
2014,08,19,01,21,20.80
2014,08,19,01,22,20.80
2014,08,19,01,23,20.70
2014,08,19,01,24,20.70
2014,08,19,01,25,20.70
2014,08,19,01,26,20.70
2014,08,19,01,27,20.70
2014,08,19,01,28,20.70
2014,08,19,01,29,20.70
2014,08,19,01,30,20.60
2014,08,19,01,31,20.60
2014,08,19,01,32,20.60
2014,08,19,01,33,20.60
2014,08,19,01,34,20.50
2014,08,19,01,35,20.50
2014,08,19,01,36,20.50
2014,08,19,01,37,20.50
2014,08,19,01,38,20.40
2014,08,19,01,39,20.40
2014,08,19,01,40,20.40
2014,08,19,01,41,20.40
2014,08,19,01,42,20.40
2014,08,19,01,43,20.40
2014,08,19,01,44,20.40
2014,08,19,01,45,20.40
2014,08,19,01,46,20.40
2014,08,19,01,47,20.30
2014,08,19,01,48,20.30
2014,08,19,01,49,20.30
2014,08,19,01,50,20.30
2014,08,19,01,51,20.30
2014,08,19,01,52,20.30
2014,08,19,01,53,20.30
2014,08,19,01,54,20.30
2014,08,19,01,55,20.30
2014,08,19,01,56,20.30
2014,08,19,01,57,20.40
2014,08,19,01,58,20.40
2014,08,19,01,59,20.40
2014,08,19,02,00,20.40
2014,08,19,02,01,20.40
2014,08,19,02,02,20.40
2014,08,19,02,03,20.40
2014,08,19,02,04,20.40
2014,08,19,02,05,20.40
2014,08,19,02,06,20.40
2014,08,19,02,07,20.40
2014,08,19,02,08,20.40
2014,08,19,02,09,20.50
2014,08,19,02,10,20.50
2014,08,19,02,11,20.50
2014,08,19,02,12,20.50
2014,08,19,02,13,20.50
2014,08,19,02,14,20.50
2014,08,19,02,15,20.50
2014,08,19,02,16,20.50
2014,08,19,02,17,20.60
2014,08,19,02,18,20.60
2014,08,19,02,19,20.60
2014,08,19,02,20,20.60
2014,08,19,02,21,20.60
2014,08,19,02,22,20.60
2014,08,19,02,23,20.60
2014,08,19,02,24,20.60
2014,08,19,02,25,20.60
2014,08,19,02,26,20.70
2014,08,19,02,27,20.70
2014,08,19,02,28,20.70
2014,08,19,02,29,20.70
2014,08,19,02,30,20.70
2014,08,19,02,31,20.70
2014,08,19,02,32,20.70
2014,08,19,02,33,20.70
2014,08,19,02,34,20.70
2014,08,19,02,35,20.70
2014,08,19,02,36,20.70
2014,08,19,02,37,20.80
2014,08,19,02,38,20.80
2014,08,19,02,39,20.80
2014,08,19,02,40,20.80
2014,08,19,02,41,20.80
2014,08,19,02,42,20.80
2014,08,19,02,43,20.80
2014,08,19,02,44,20.80
2014,08,19,02,45,20.70
2014,08,19,02,46,20.70
2014,08,19,02,47,20.70
2014,08,19,02,48,20.70
2014,08,19,02,49,20.70
2014,08,19,02,50,20.60
2014,08,19,02,51,20.60
2014,08,19,02,52,20.60
2014,08,19,02,53,20.60
2014,08,19,02,54,20.50
2014,08,19,02,55,20.50
2014,08,19,02,56,20.50
2014,08,19,02,57,20.40
2014,08,19,02,58,20.40
2014,08,19,02,59,20.40
2014,08,19,03,00,20.40
2014,08,19,03,01,20.40
2014,08,19,03,02,20.30
2014,08,19,03,03,20.30
2014,08,19,03,04,20.30
2014,08,19,03,05,20.30
2014,08,19,03,06,20.30
2014,08,19,03,07,20.20
2014,08,19,03,08,20.20
2014,08,19,03,09,20.20
2014,08,19,03,10,20.20
2014,08,19,03,11,20.10
2014,08,19,03,12,20.10
2014,08,19,03,13,20.10
2014,08,19,03,14,20.10
2014,08,19,03,15,20.00
2014,08,19,03,16,20.00
2014,08,19,03,17,20.00
2014,08,19,03,18,19.90
2014,08,19,03,19,19.90
2014,08,19,03,20,19.90
2014,08,19,03,21,19.80
2014,08,19,03,22,19.80
2014,08,19,03,23,19.70
2014,08,19,03,24,19.70
2014,08,19,03,25,19.70
2014,08,19,03,26,19.60
2014,08,19,03,27,19.60
2014,08,19,03,28,19.60
2014,08,19,03,29,19.50
2014,08,19,03,30,19.50
2014,08,19,03,31,19.40
2014,08,19,03,32,19.40
2014,08,19,03,33,19.40
2014,08,19,03,34,19.30
2014,08,19,03,35,19.30
2014,08,19,03,36,19.30
2014,08,19,03,37,19.20
2014,08,19,03,38,19.20
2014,08,19,03,39,19.20
2014,08,19,03,40,19.20
2014,08,19,03,41,19.10
2014,08,19,03,42,19.10
2014,08,19,03,43,19.10
2014,08,19,03,44,19.10
2014,08,19,03,45,19.10
2014,08,19,03,46,19.00
2014,08,19,03,47,19.00
2014,08,19,03,48,19.00
2014,08,19,03,49,18.90
2014,08,19,03,50,18.90
2014,08,19,03,51,18.90
2014,08,19,03,52,18.90
2014,08,19,03,53,18.90
2014,08,19,03,54,18.90
2014,08,19,03,55,18.90
2014,08,19,03,56,18.80
2014,08,19,03,57,18.80
2014,08,19,03,58,18.80
2014,08,19,03,59,18.80
2014,08,19,04,00,18.80
2014,08,19,04,01,18.80
2014,08,19,04,02,18.80
2014,08,19,04,03,18.80
2014,08,19,04,04,18.80
2014,08,19,04,05,18.80
2014,08,19,04,06,18.80
2014,08,19,04,07,18.80
2014,08,19,04,08,18.80
2014,08,19,04,09,18.80
2014,08,19,04,10,18.70
2014,08,19,04,11,18.70
2014,08,19,04,12,18.70
2014,08,19,04,13,18.70
2014,08,19,04,14,18.70
2014,08,19,04,15,18.70
2014,08,19,04,16,18.70
2014,08,19,04,17,18.70
2014,08,19,04,18,18.60
2014,08,19,04,19,18.60
2014,08,19,04,20,18.60
2014,08,19,04,21,18.60
2014,08,19,04,22,18.60
2014,08,19,04,23,18.60
2014,08,19,04,24,18.60
2014,08,19,04,25,18.60
2014,08,19,04,26,18.60
2014,08,19,04,27,18.60
2014,08,19,04,28,18.60
2014,08,19,04,29,18.60
2014,08,19,04,30,18.60
2014,08,19,04,31,18.60
2014,08,19,04,32,18.60
2014,08,19,04,33,18.60
2014,08,19,04,34,18.60
2014,08,19,04,35,18.60
2014,08,19,04,36,18.60
2014,08,19,04,37,18.60
2014,08,19,04,38,18.60
2014,08,19,04,39,18.60
2014,08,19,04,40,18.60
2014,08,19,04,41,18.60
2014,08,19,04,42,18.50
2014,08,19,04,43,18.50
2014,08,19,04,44,18.50
2014,08,19,04,45,18.50
2014,08,19,04,46,18.50
2014,08,19,04,47,18.50
2014,08,19,04,48,18.50
2014,08,19,04,49,18.40
2014,08,19,04,50,18.40
2014,08,19,04,51,18.40
2014,08,19,04,52,18.40
2014,08,19,04,53,18.40
2014,08,19,04,54,18.40
2014,08,19,04,55,18.40
2014,08,19,04,56,18.40
2014,08,19,04,57,18.30
2014,08,19,04,58,18.30
2014,08,19,04,59,18.30
2014,08,19,05,00,18.30
2014,08,19,05,01,18.30
2014,08,19,05,02,18.30
2014,08,19,05,03,18.20
2014,08,19,05,04,18.20
2014,08,19,05,05,18.20
2014,08,19,05,06,18.20
2014,08,19,05,07,18.20
2014,08,19,05,08,18.20
2014,08,19,05,09,18.10
2014,08,19,05,10,18.10
2014,08,19,05,11,18.10
2014,08,19,05,12,18.10
2014,08,19,05,13,18.10
2014,08,19,05,14,18.10
2014,08,19,05,15,18.00
2014,08,19,05,16,18.00
2014,08,19,05,17,18.00
2014,08,19,05,18,18.00
2014,08,19,05,19,17.90
2014,08,19,05,20,17.90
2014,08,19,05,21,17.90
2014,08,19,05,22,17.90
2014,08,19,05,23,17.80
2014,08,19,05,24,17.80
2014,08,19,05,25,17.80
2014,08,19,05,26,17.80
2014,08,19,05,27,17.80
2014,08,19,05,28,17.80
2014,08,19,05,29,17.80
2014,08,19,05,30,17.80
2014,08,19,05,31,17.80
2014,08,19,05,32,17.80
2014,08,19,05,33,17.80
2014,08,19,05,34,17.80
2014,08,19,05,35,17.80
2014,08,19,05,36,17.80
2014,08,19,05,37,17.80
2014,08,19,05,38,17.80
2014,08,19,05,39,17.80
2014,08,19,05,40,17.80
2014,08,19,05,41,17.80
2014,08,19,05,42,17.80
2014,08,19,05,43,17.90
2014,08,19,05,44,17.90
2014,08,19,05,45,17.90
2014,08,19,05,46,17.90
2014,08,19,05,47,18.00
2014,08,19,05,48,18.00
2014,08,19,05,49,18.00
2014,08,19,05,50,18.00
2014,08,19,05,51,18.10
2014,08,19,05,52,18.10
2014,08,19,05,53,18.10
2014,08,19,05,54,18.10
2014,08,19,05,55,18.10
2014,08,19,05,56,18.10
2014,08,19,05,57,18.10
2014,08,19,05,58,18.10
2014,08,19,05,59,18.10
2014,08,19,06,00,18.10
2014,08,19,06,01,18.10
2014,08,19,06,02,18.10
2014,08,19,06,03,18.10
2014,08,19,06,04,18.10
2014,08,19,06,05,18.10
2014,08,19,06,06,18.10
2014,08,19,06,07,18.10
2014,08,19,06,08,18.10
2014,08,19,06,09,18.10
2014,08,19,06,10,18.10
2014,08,19,06,11,18.00
2014,08,19,06,12,18.00
2014,08,19,06,13,18.00
2014,08,19,06,14,18.00
2014,08,19,06,15,18.00
2014,08,19,06,16,17.90
2014,08,19,06,17,17.90
2014,08,19,06,18,17.90
2014,08,19,06,19,17.90
2014,08,19,06,20,17.90
2014,08,19,06,21,17.90
2014,08,19,06,22,17.90
2014,08,19,06,23,17.90
2014,08,19,06,24,17.90
2014,08,19,06,25,17.90
2014,08,19,06,26,17.90
2014,08,19,06,27,17.90
2014,08,19,06,28,17.90
2014,08,19,06,29,17.90
2014,08,19,06,30,17.90
2014,08,19,06,31,17.90
2014,08,19,06,32,17.90
2014,08,19,06,33,17.90
2014,08,19,06,34,17.90
2014,08,19,06,35,17.90
2014,08,19,06,36,18.00
2014,08,19,06,37,18.00
2014,08,19,06,38,18.10
2014,08,19,06,39,18.10
2014,08,19,06,40,18.10
2014,08,19,06,41,18.10
2014,08,19,06,42,18.20
2014,08,19,06,43,18.20
2014,08,19,06,44,18.20
2014,08,19,06,45,18.20
2014,08,19,06,46,18.30
2014,08,19,06,47,18.30
2014,08,19,06,48,18.30
2014,08,19,06,49,18.30
2014,08,19,06,50,18.30
2014,08,19,06,51,18.30
2014,08,19,06,52,18.40
2014,08,19,06,53,18.40
2014,08,19,06,54,18.40
2014,08,19,06,55,18.40
2014,08,19,06,56,18.40
2014,08,19,06,57,18.40
2014,08,19,06,58,18.40
2014,08,19,06,59,18.40
2014,08,19,07,00,18.40
2014,08,19,07,01,18.30
2014,08,19,07,02,18.30
2014,08,19,07,03,18.30
2014,08,19,07,04,18.30
2014,08,19,07,05,18.30
2014,08,19,07,06,18.30
2014,08,19,07,07,18.30
2014,08,19,07,08,18.30
2014,08,19,07,09,18.30
2014,08,19,07,10,18.20
2014,08,19,07,11,18.20
2014,08,19,07,12,18.20
2014,08,19,07,13,18.20
2014,08,19,07,14,18.20
2014,08,19,07,15,18.10
2014,08,19,07,16,18.10
2014,08,19,07,17,18.10
2014,08,19,07,18,18.10
2014,08,19,07,19,18.00
2014,08,19,07,20,18.00
2014,08,19,07,21,18.00
2014,08,19,07,22,17.90
2014,08,19,07,23,17.90
2014,08,19,07,24,17.90
2014,08,19,07,25,17.80
2014,08,19,07,26,17.80
2014,08,19,07,27,17.80
2014,08,19,07,28,17.70
2014,08,19,07,29,17.70
2014,08,19,07,30,17.70
2014,08,19,07,31,17.60
2014,08,19,07,32,17.60
2014,08,19,07,33,17.60
2014,08,19,07,34,17.50
2014,08,19,07,35,17.50
2014,08,19,07,36,17.40
2014,08,19,07,37,17.40
2014,08,19,07,38,17.40
2014,08,19,07,39,17.40
2014,08,19,07,40,17.40
2014,08,19,07,41,17.40
2014,08,19,07,42,17.40
2014,08,19,07,43,17.40
2014,08,19,07,44,17.40
2014,08,19,07,45,17.50
2014,08,19,07,46,17.50
2014,08,19,07,47,17.60
2014,08,19,07,48,17.60
2014,08,19,07,49,17.60
2014,08,19,07,50,17.70
2014,08,19,07,51,17.70
2014,08,19,07,52,17.70
2014,08,19,07,53,17.70
2014,08,19,07,54,17.80
2014,08,19,07,55,17.80
2014,08,19,07,56,17.80
2014,08,19,07,57,17.80
2014,08,19,07,58,17.90
2014,08,19,07,59,17.90
2014,08,19,08,00,17.90
2014,08,19,08,01,17.90
2014,08,19,08,02,17.90
2014,08,19,08,03,17.90
2014,08,19,08,04,18.00
2014,08,19,08,05,18.00
2014,08,19,08,06,18.00
2014,08,19,08,07,18.10
2014,08,19,08,08,18.10
2014,08,19,08,09,18.10
2014,08,19,08,10,18.10
2014,08,19,08,11,18.10
2014,08,19,08,12,18.10
2014,08,19,08,13,18.20
2014,08,19,08,14,18.20
2014,08,19,08,15,18.20
2014,08,19,08,16,18.30
2014,08,19,08,17,18.30
2014,08,19,08,18,18.40
2014,08,19,08,19,18.40
2014,08,19,08,20,18.40
2014,08,19,08,21,18.50
2014,08,19,08,22,18.60
2014,08,19,08,23,18.60
2014,08,19,08,24,18.70
2014,08,19,08,25,18.80
2014,08,19,08,26,18.90
2014,08,19,08,27,19.00
2014,08,19,08,28,19.00
2014,08,19,08,29,19.10
2014,08,19,08,30,19.10
2014,08,19,08,31,19.20
2014,08,19,08,32,19.20
2014,08,19,08,33,19.30
2014,08,19,08,34,19.30
2014,08,19,08,35,19.30
2014,08,19,08,36,19.30
2014,08,19,08,37,19.30
2014,08,19,08,38,19.30
2014,08,19,08,39,19.30
2014,08,19,08,40,19.40
2014,08,19,08,41,19.40
2014,08,19,08,42,19.40
2014,08,19,08,43,19.50
2014,08,19,08,44,19.50
2014,08,19,08,45,19.60
2014,08,19,08,46,19.60
2014,08,19,08,47,19.70
2014,08,19,08,48,19.60
2014,08,19,08,49,19.60
2014,08,19,08,50,19.60
2014,08,19,08,51,19.50
2014,08,19,08,52,19.50
2014,08,19,08,53,19.40
2014,08,19,08,54,19.40
2014,08,19,08,55,19.30
2014,08,19,08,56,19.30
2014,08,19,08,57,19.30
2014,08,19,08,58,19.20
2014,08,19,08,59,19.20
2014,08,19,09,00,19.20
2014,08,19,09,01,19.30
2014,08,19,09,02,19.30
2014,08,19,09,03,19.30
2014,08,19,09,04,19.30
2014,08,19,09,05,19.30
2014,08,19,09,06,19.40
2014,08,19,09,07,19.40
2014,08,19,09,08,19.50
2014,08,19,09,09,19.50
2014,08,19,09,10,19.50
2014,08,19,09,11,19.60
2014,08,19,09,12,19.60
2014,08,19,09,13,19.70
2014,08,19,09,14,19.70
2014,08,19,09,15,19.80
2014,08,19,09,16,19.90
2014,08,19,09,17,19.90
2014,08,19,09,18,20.00
2014,08,19,09,19,20.10
2014,08,19,09,20,20.10
2014,08,19,09,21,20.20
2014,08,19,09,22,20.20
2014,08,19,09,23,20.20
2014,08,19,09,24,20.20
2014,08,19,09,25,20.30
2014,08,19,09,26,20.30
2014,08,19,09,27,20.30
2014,08,19,09,28,20.40
2014,08,19,09,29,20.40
2014,08,19,09,30,20.50
2014,08,19,09,31,20.50
2014,08,19,09,32,20.50
2014,08,19,09,33,20.60
2014,08,19,09,34,20.60
2014,08,19,09,35,20.50
2014,08,19,09,36,20.50
2014,08,19,09,37,20.50
2014,08,19,09,38,20.50
2014,08,19,09,39,20.50
2014,08,19,09,40,20.50
2014,08,19,09,41,20.50
2014,08,19,09,42,20.50
2014,08,19,09,43,20.50
2014,08,19,09,44,20.50
2014,08,19,09,45,20.60
2014,08,19,09,46,20.60
2014,08,19,09,47,20.60
2014,08,19,09,48,20.60
2014,08,19,09,49,20.60
2014,08,19,09,50,20.60
2014,08,19,09,51,20.60
2014,08,19,09,52,20.60
2014,08,19,09,53,20.70
2014,08,19,09,54,20.70
2014,08,19,09,55,20.80
2014,08,19,09,56,20.80
2014,08,19,09,57,20.80
2014,08,19,09,58,20.90
2014,08,19,09,59,20.90
2014,08,19,10,00,20.90
2014,08,19,10,01,20.90
2014,08,19,10,02,20.90
2014,08,19,10,03,20.90
2014,08,19,10,04,20.90
2014,08,19,10,05,20.90
2014,08,19,10,06,20.90
2014,08,19,10,07,20.90
2014,08,19,10,08,21.00
2014,08,19,10,09,21.00
2014,08,19,10,10,21.00
2014,08,19,10,11,21.10
2014,08,19,10,12,21.10
2014,08,19,10,13,21.10
2014,08,19,10,14,21.10
2014,08,19,10,15,21.10
2014,08,19,10,16,21.20
2014,08,19,10,17,21.20
2014,08,19,10,18,21.30
2014,08,19,10,19,21.30
2014,08,19,10,20,21.40
2014,08,19,10,21,21.40
2014,08,19,10,22,21.40
2014,08,19,10,23,21.50
2014,08,19,10,24,21.50
2014,08,19,10,25,21.60
2014,08,19,10,26,21.60
2014,08,19,10,27,21.60
2014,08,19,10,28,21.70
2014,08,19,10,29,21.70
2014,08,19,10,30,21.70
2014,08,19,10,31,21.80
2014,08,19,10,32,21.80
2014,08,19,10,33,21.80
2014,08,19,10,34,21.80
2014,08,19,10,35,21.70
2014,08,19,10,36,21.70
2014,08,19,10,37,21.70
2014,08,19,10,38,21.70
2014,08,19,10,39,21.60
2014,08,19,10,40,21.60
2014,08,19,10,41,21.60
2014,08,19,10,42,21.50
2014,08,19,10,43,21.50
2014,08,19,10,44,21.50
2014,08,19,10,45,21.40
2014,08,19,10,46,21.40
2014,08,19,10,47,21.40
2014,08,19,10,48,21.40
2014,08,19,10,49,21.50
2014,08,19,10,50,21.50
2014,08,19,10,51,21.50
2014,08,19,10,52,21.50
2014,08,19,10,53,21.50
2014,08,19,10,54,21.60
2014,08,19,10,55,21.60
2014,08,19,10,56,21.60
2014,08,19,10,57,21.60
2014,08,19,10,58,21.70
2014,08,19,10,59,21.80
2014,08,19,11,00,21.80
2014,08,19,11,01,21.80
2014,08,19,11,02,21.90
2014,08,19,11,03,21.90
2014,08,19,11,04,22.00
2014,08,19,11,05,22.10
2014,08,19,11,06,22.10
2014,08,19,11,07,22.10
2014,08,19,11,08,22.10
2014,08,19,11,09,22.10
2014,08,19,11,10,22.10
2014,08,19,11,11,22.10
2014,08,19,11,12,22.10
2014,08,19,11,13,22.10
2014,08,19,11,14,22.10
2014,08,19,11,15,22.00
2014,08,19,11,16,22.00
2014,08,19,11,17,21.90
2014,08,19,11,18,21.90
2014,08,19,11,19,21.90
2014,08,19,11,20,21.90
2014,08,19,11,21,21.90
2014,08,19,11,22,21.90
2014,08,19,11,23,22.00
2014,08,19,11,24,22.00
2014,08,19,11,25,22.00
2014,08,19,11,26,22.00
2014,08,19,11,27,21.90
2014,08,19,11,28,21.90
2014,08,19,11,29,21.90
2014,08,19,11,30,21.80
2014,08,19,11,31,21.80
2014,08,19,11,32,21.80
2014,08,19,11,33,21.80
2014,08,19,11,34,21.80
2014,08,19,11,35,21.90
2014,08,19,11,36,21.90
2014,08,19,11,37,22.00
2014,08,19,11,38,22.10
2014,08,19,11,39,22.10
2014,08,19,11,40,22.20
2014,08,19,11,41,22.20
2014,08,19,11,42,22.20
2014,08,19,11,43,22.30
2014,08,19,11,44,22.30
2014,08,19,11,45,22.30
2014,08,19,11,46,22.40
2014,08,19,11,47,22.40
2014,08,19,11,48,22.40
2014,08,19,11,49,22.50
2014,08,19,11,50,22.50
2014,08,19,11,51,22.60
2014,08,19,11,52,22.60
2014,08,19,11,53,22.60
2014,08,19,11,54,22.70
2014,08,19,11,55,22.70
2014,08,19,11,56,22.60
2014,08,19,11,57,22.50
2014,08,19,11,58,22.50
2014,08,19,11,59,22.40
2014,08,19,12,00,22.40
2014,08,19,12,01,22.40
2014,08,19,12,02,22.40
2014,08,19,12,03,22.40
2014,08,19,12,04,22.50
2014,08,19,12,05,22.50
2014,08,19,12,06,22.50
2014,08,19,12,07,22.60
2014,08,19,12,08,22.60
2014,08,19,12,09,22.60
2014,08,19,12,10,22.60
2014,08,19,12,11,22.60
2014,08,19,12,12,22.60
2014,08,19,12,13,22.60
2014,08,19,12,14,22.60
2014,08,19,12,15,22.60
2014,08,19,12,16,22.60
2014,08,19,12,17,22.60
2014,08,19,12,18,22.70
2014,08,19,12,19,22.60
2014,08,19,12,20,22.60
2014,08,19,12,21,22.60
2014,08,19,12,22,22.50
2014,08,19,12,23,22.40
2014,08,19,12,24,22.40
2014,08,19,12,25,22.40
2014,08,19,12,26,22.40
2014,08,19,12,27,22.50
2014,08,19,12,28,22.50
2014,08,19,12,29,22.60
2014,08,19,12,30,22.70
2014,08,19,12,31,22.80
2014,08,19,12,32,22.80
2014,08,19,12,33,22.80
2014,08,19,12,34,22.90
2014,08,19,12,35,22.90
2014,08,19,12,36,23.00
2014,08,19,12,37,23.10
2014,08,19,12,38,23.10
2014,08,19,12,39,23.20
2014,08,19,12,40,23.20
2014,08,19,12,41,23.20
2014,08,19,12,42,23.20
2014,08,19,12,43,23.20
2014,08,19,12,44,23.30
2014,08,19,12,45,23.30
2014,08,19,12,46,23.30
2014,08,19,12,47,23.30
2014,08,19,12,48,23.30
2014,08,19,12,49,23.30
2014,08,19,12,50,23.30
2014,08,19,12,51,23.30
2014,08,19,12,52,23.40
2014,08,19,12,53,23.40
2014,08,19,12,54,23.40
2014,08,19,12,55,23.40
2014,08,19,12,56,23.40
2014,08,19,12,57,23.40
2014,08,19,12,58,23.40
2014,08,19,12,59,23.40
2014,08,19,13,00,23.50
2014,08,19,13,01,23.60
2014,08,19,13,02,23.60
2014,08,19,13,03,23.70
2014,08,19,13,04,23.70
2014,08,19,13,05,23.70
2014,08,19,13,06,23.70
2014,08,19,13,07,23.70
2014,08,19,13,08,23.70
2014,08,19,13,09,23.60
2014,08,19,13,10,23.60
2014,08,19,13,11,23.60
2014,08,19,13,12,23.60
2014,08,19,13,13,23.70
2014,08,19,13,14,23.70
2014,08,19,13,15,23.80
2014,08,19,13,16,23.80
2014,08,19,13,17,23.80
2014,08,19,13,18,23.90
2014,08,19,13,19,24.00
2014,08,19,13,20,24.10
2014,08,19,13,21,24.20
2014,08,19,13,22,24.30
2014,08,19,13,23,24.30
2014,08,19,13,24,24.30
2014,08,19,13,25,24.30
2014,08,19,13,26,24.20
2014,08,19,13,27,24.00
2014,08,19,13,28,23.90
2014,08,19,13,29,23.80
2014,08,19,13,30,23.70
2014,08,19,13,31,23.60
2014,08,19,13,32,23.60
2014,08,19,13,33,23.60
2014,08,19,13,34,23.60
2014,08,19,13,35,23.70
2014,08,19,13,36,23.70
2014,08,19,13,37,23.80
2014,08,19,13,38,23.80
2014,08,19,13,39,23.80
2014,08,19,13,40,23.80
2014,08,19,13,41,23.80
2014,08,19,13,42,23.80
2014,08,19,13,43,23.70
2014,08,19,13,44,23.70
2014,08,19,13,45,23.70
2014,08,19,13,46,23.70
2014,08,19,13,47,23.80
2014,08,19,13,48,23.90
2014,08,19,13,49,24.00
2014,08,19,13,50,24.00
2014,08,19,13,51,24.10
2014,08,19,13,52,24.10
2014,08,19,13,53,24.20
2014,08,19,13,54,24.30
2014,08,19,13,55,24.30
2014,08,19,13,56,24.30
2014,08,19,13,57,24.30
2014,08,19,13,58,24.20
2014,08,19,13,59,24.20
2014,08,19,14,00,24.20
2014,08,19,14,01,24.20
2014,08,19,14,02,24.20
2014,08,19,14,03,24.20
2014,08,19,14,04,24.20
2014,08,19,14,05,24.20
2014,08,19,14,06,24.10
2014,08,19,14,07,24.10
2014,08,19,14,08,24.00
2014,08,19,14,09,23.90
2014,08,19,14,10,23.80
2014,08,19,14,11,23.70
2014,08,19,14,12,23.60
2014,08,19,14,13,23.50
2014,08,19,14,14,23.40
2014,08,19,14,15,23.30
2014,08,19,14,16,23.30
2014,08,19,14,17,23.20
2014,08,19,14,18,23.10
2014,08,19,14,19,23.10
2014,08,19,14,20,23.00
2014,08,19,14,21,22.90
2014,08,19,14,22,22.90
2014,08,19,14,23,22.90
2014,08,19,14,24,22.80
2014,08,19,14,25,22.80
2014,08,19,14,26,22.70
2014,08,19,14,27,22.70
2014,08,19,14,28,22.60
2014,08,19,14,29,22.50
2014,08,19,14,30,22.40
2014,08,19,14,31,22.40
2014,08,19,14,32,22.30
2014,08,19,14,33,22.30
2014,08,19,14,34,22.30
2014,08,19,14,35,22.30
2014,08,19,14,36,22.20
2014,08,19,14,37,22.20
2014,08,19,14,38,22.30
2014,08,19,14,39,22.30
2014,08,19,14,40,22.30
2014,08,19,14,41,22.40
2014,08,19,14,42,22.40
2014,08,19,14,43,22.50
2014,08,19,14,44,22.50
2014,08,19,14,45,22.50
2014,08,19,14,46,22.50
2014,08,19,14,47,22.50
2014,08,19,14,48,22.60
2014,08,19,14,49,22.60
2014,08,19,14,50,22.70
2014,08,19,14,51,22.80
2014,08,19,14,52,22.80
2014,08,19,14,53,22.80
2014,08,19,14,54,22.90
2014,08,19,14,55,22.90
2014,08,19,14,56,22.90
2014,08,19,14,57,22.90
2014,08,19,14,58,22.90
2014,08,19,14,59,22.90
2014,08,19,15,00,22.90
2014,08,19,15,01,23.00
2014,08,19,15,02,23.00
2014,08,19,15,03,23.00
2014,08,19,15,04,23.00
2014,08,19,15,05,23.10
2014,08,19,15,06,23.00
2014,08,19,15,07,23.00
2014,08,19,15,08,23.00
2014,08,19,15,09,22.90
2014,08,19,15,10,22.90
2014,08,19,15,11,22.90
2014,08,19,15,12,22.90
2014,08,19,15,13,22.90
2014,08,19,15,14,22.90
2014,08,19,15,15,22.90
2014,08,19,15,16,22.90
2014,08,19,15,17,22.80
2014,08,19,15,18,22.80
2014,08,19,15,19,22.80
2014,08,19,15,20,22.80
2014,08,19,15,21,22.80
2014,08,19,15,22,22.80
2014,08,19,15,23,22.80
2014,08,19,15,24,22.80
2014,08,19,15,25,22.80
2014,08,19,15,26,22.90
2014,08,19,15,27,22.90
2014,08,19,15,28,22.90
2014,08,19,15,29,23.00
2014,08,19,15,30,23.00
2014,08,19,15,31,23.00
2014,08,19,15,32,23.10
2014,08,19,15,33,23.10
2014,08,19,15,34,23.20
2014,08,19,15,35,23.30
2014,08,19,15,36,23.30
2014,08,19,15,37,23.30
2014,08,19,15,38,23.30
2014,08,19,15,39,23.20
2014,08,19,15,40,23.20
2014,08,19,15,41,23.20
2014,08,19,15,42,23.20
2014,08,19,15,43,23.20
2014,08,19,15,44,23.10
2014,08,19,15,45,23.20
2014,08,19,15,46,23.20
2014,08,19,15,47,23.20
2014,08,19,15,48,23.20
2014,08,19,15,49,23.20
2014,08,19,15,50,23.20
2014,08,19,15,51,23.20
2014,08,19,15,52,23.30
2014,08,19,15,53,23.30
2014,08,19,15,54,23.30
2014,08,19,15,55,23.30
2014,08,19,15,56,23.30
2014,08,19,15,57,23.30
2014,08,19,15,58,23.30
2014,08,19,15,59,23.30
2014,08,19,16,00,23.20
2014,08,19,16,01,23.20
2014,08,19,16,02,23.20
2014,08,19,16,03,23.20
2014,08,19,16,04,23.20
2014,08,19,16,05,23.20
2014,08,19,16,06,23.20
2014,08,19,16,07,23.20
2014,08,19,16,08,23.20
2014,08,19,16,09,23.20
2014,08,19,16,10,23.20
2014,08,19,16,11,23.20
2014,08,19,16,12,23.20
2014,08,19,16,13,23.30
2014,08,19,16,14,23.30
2014,08,19,16,15,23.30
2014,08,19,16,16,23.30
2014,08,19,16,17,23.30
2014,08,19,16,18,23.40
2014,08,19,16,19,23.40
2014,08,19,16,20,23.40
2014,08,19,16,21,23.40
2014,08,19,16,22,23.40
2014,08,19,16,23,23.40
2014,08,19,16,24,23.50
2014,08,19,16,25,23.50
2014,08,19,16,26,23.60
2014,08,19,16,27,23.60
2014,08,19,16,28,23.60
2014,08,19,16,29,23.50
2014,08,19,16,30,23.50
2014,08,19,16,31,23.50
2014,08,19,16,32,23.40
2014,08,19,16,33,23.40
2014,08,19,16,34,23.40
2014,08,19,16,35,23.40
2014,08,19,16,36,23.40
2014,08,19,16,37,23.40
2014,08,19,16,38,23.40
2014,08,19,16,39,23.40
2014,08,19,16,40,23.40
2014,08,19,16,41,23.40
2014,08,19,16,42,23.40
2014,08,19,16,43,23.40
2014,08,19,16,44,23.40
2014,08,19,16,45,23.40
2014,08,19,16,46,23.30
2014,08,19,16,47,23.30
2014,08,19,16,48,23.30
2014,08,19,16,49,23.30
2014,08,19,16,50,23.30
2014,08,19,16,51,23.30
2014,08,19,16,52,23.20
2014,08,19,16,53,23.20
2014,08,19,16,54,23.20
2014,08,19,16,55,23.20
2014,08,19,16,56,23.20
2014,08,19,16,57,23.20
2014,08,19,16,58,23.20
2014,08,19,16,59,23.20
2014,08,19,17,00,23.20
2014,08,19,17,01,23.20
2014,08,19,17,02,23.20
2014,08,19,17,03,23.20
2014,08,19,17,04,23.20
2014,08,19,17,05,23.20
2014,08,19,17,06,23.20
2014,08,19,17,07,23.10
2014,08,19,17,08,23.10
2014,08,19,17,09,23.10
2014,08,19,17,10,23.00
2014,08,19,17,11,23.00
2014,08,19,17,12,23.00
2014,08,19,17,13,23.10
2014,08,19,17,14,23.00
2014,08,19,17,15,23.10
2014,08,19,17,16,23.10
2014,08,19,17,17,23.10
2014,08,19,17,18,23.10
2014,08,19,17,19,23.10